STARLINK-36614, 67622

Orbit data source: Space-Track

STARLINK-36614, 67622 is a payload satellite owned by SpaceX/Seattle (US) in LEO that was launched on Fri, 30 Jan 2026 UTC via an FALCON 9 launch vehicle from the Air Force Eastern Test Range (AFETR). Payload-class satellites include a variety of spacecraft equipped with specific instruments for various scientific and technological missions. These include communications satellites like Starlink; space stations such as the ISS; scientific satellites like the Hubble; Earth observation satellites from companies like Planet Labs, Umbra, and HawkEye 360; GPS; miniature CubeSats for education and research; and military/defense satellites.

Loading next visibility...
Identifier
67622, 2026-020F
Orbit
LEO
Country
Flag of USUS
Related business
Manufacturer
SpaceX/Seattle
Mission
Operational spacecraft
Bus & Motor
STARLINK V2MO, Unknown motor
Mass
575 kg wet, ~530 kg dry
Launch date (UTC)
2026-01-30 (1 week ago)
Launch vehicle
FALCON 9
Launch site
Air Force Eastern Test Range (AFETR)
Object type
Payload
Rocket body
Debris
Shape & HBR
Unknown
Radar Cross Section
RCS unknown

Expand to show TLE details & history
Last TLE update: 9 hours ago

TLE from 9 hours ago
0 STARLINK-36614
1 67622U 26020F   26037.58335648 -.01726348  00000-0 -61342-2 0  9994
2 67622  43.0001 331.5568 0001864 258.6446  76.6797 15.90780206  2392
Epoch: 2026-02-06T14:00Z
TLE epoch observation values (Epoch: 2026-02-06T14:00:01.999Z)
Latitude
-16.6758°
Longitude
-33.79821°
Altitude
303.194 km
Speed
7.727 km/s
True Right ascension
20h 51m 43s
True Declination
-16° 34' 30"
Sunlit
Object was in daylight at epoch
Visualization orbit readout
Latitude
Unknown
Longitude
Unknown
Altitude
Unknown
Speed
Unknown
Apparent Right ascension
Unknown
Apparent Declination
Unknown
Sunlit
N/A
Visualization observer readout
Local Sidereal Time
00:45:09
Azimuth
Unknown
Elevation
Unknown
Doppler factor
Unknown
Orbital elements
Apogee altitude
303.342 km
Perigee altitude
300.851 km
Semi-major axis
6,680.234 km
Eccentricity
0.00019
Inclination
43.0001°
RAAN
331.5568°
Arg. of periapsis
258.6446°
True anomaly
76.70049°
Mean anomaly
76.6797°
Eccentric anomaly
76.69009°
Mean motion
3.97517 °/min
Orbital period
90.56 mins
BSTAR
-0.0061342
Loading maneuver chart data...
Computing Atmospheric mass density...
Loading historical data...
Loading historical data...
Loading historical data...
Loading historical data...
Loading historical data...
Loading historical data...
Loading historical data...

Documentation

Showing up to 5 results
|